Location: Bay Ridge
(40.6340°N, 74.0146°W)
Time: 16:17:50
(UTC+00:00)

PSLV R/B - Pass Details

Date: 15 November 2019
Orbit: 505 x 579 km, 97.8° (Epoch: 14 December)

Event Time Altitude Azimuth Distance (km) Brightness Sun altitude
Rises 09:42:06 0° 16° (NNE) 2,670 7.5 -22.8°
Reaches altitude 10° 09:44:13 10° 21° (NNE) 1,787 6.6 -22.4°
Maximum altitude 09:48:01 57° 100° (E) 639 4.4 -21.7°
Drops below altitude 10° 09:51:53 10° 180° (S) 1,817 6.5 -21.0°
Sets 09:54:03 0° 185° (S) 2,718 7.4 -20.6°
